Location: Unspecified
(0.0000°N, 0.0000°E)
Time: 11:17:06
(UTC+00:00)

Courier 1B - Pass Details

Date: 26 November 2019
Orbit: 963 x 1209 km, 28.3° (Epoch: 14 December)

Event Time Altitude Azimuth Distance (km) Brightness Sun altitude
Rises 11:18:39 0° 294° (WNW) 3,651 10.3 67.9°
Reaches altitude 10° 11:21:20 10° 291° (WNW) 2,692 9.8 68.1°
Maximum altitude 11:27:44 64° 210° (SSW) 1,054 9.6 68.5°
Drops below altitude 10° 11:34:11 10° 129° (SE) 2,715 10.2 68.8°
Sets 11:36:54 0° 126° (SE) 3,685 10.7 68.9°
